sat.trackr.live / text

‹ back to catalog

YAOGAN-43 02C

NORAD 60947 · 2024-156C

PAYLOAD ACTIVE UNKNOWN

§ Identity

Operator
Country
PRC
Launch date
2024-09-03
Launch site
XICLF
Launch vehicle
Mass (kg)
RCS (m²)

External: N2YO · Heavens-Above · Gunter

§ Orbital elements

Epoch: 2026-05-24T23:21:08.574624Z

Period
94.55 min
Inclination
34.9989°
Eccentricity
0.0003608
Mean motion
15.23020575 rev/d
Perigee alt
494.3 km
Apogee alt
499.2 km
Semi-major
6,874.9 km
B*
2.8260e-4
RAAN
344.1238°
Arg perigee
186.8840°
Mean anomaly
173.1826°
Rev number
9,590

§ Raw data

YAOGAN-43 02C1 60947U 24156C   26144.97301591  .00006782  00000+0  28260-3 0  99992 60947  34.9989 344.1238 0003608 186.8840 173.1826 15.23020575 95908

JSON: /api/v1/satellites/60947 · /tle

For live sub-satellite position, see the globe view (requires WebGL).

§ Visibility from observer

Set your observer location to see the next 7 days of passes ≥ 10°. The values pass through the URL so the page stays shareable.

No JS? Fill the form by hand. The geolocation button needs JavaScript.